TimeCST,TemperatureF,Dew PointF,Humidity,Sea Level PressureIn,VisibilityMPH,Wind Direction,Wind SpeedMPH,Gust SpeedMPH,PrecipitationIn,Events,Conditions,WindDirDegrees,DateUTC
12:15 AM,39.2,23.0,52,30.19,10.0,South,5.8,-,N/A,,Clear,180,2013-11-14 06:15:00
12:35 AM,41.0,23.0,49,30.18,10.0,South,5.8,-,N/A,,Clear,180,2013-11-14 06:35:00
12:55 AM,41.0,23.0,49,30.18,10.0,South,6.9,-,N/A,,Clear,190,2013-11-14 06:55:00
1:15 AM,41.0,23.0,49,30.17,10.0,South,8.1,-,N/A,,Clear,190,2013-11-14 07:15:00
1:35 AM,39.2,23.0,52,30.16,10.0,South,5.8,-,N/A,,Clear,170,2013-11-14 07:35:00
1:55 AM,39.2,23.0,52,30.15,10.0,South,5.8,-,N/A,,Unknown,190,2013-11-14 07:55:00
2:15 AM,39.2,24.8,56,30.15,10.0,South,6.9,-,N/A,,Clear,180,2013-11-14 08:15:00
2:35 AM,39.2,24.8,56,30.14,10.0,South,8.1,-,N/A,,Clear,180,2013-11-14 08:35:00
2:55 AM,39.2,24.8,56,30.13,10.0,South,6.9,-,N/A,,Clear,180,2013-11-14 08:55:00
3:15 AM,39.2,24.8,56,30.13,10.0,South,5.8,-,N/A,,Unknown,180,2013-11-14 09:15:00
3:35 AM,39.2,24.8,56,30.12,10.0,South,5.8,-,N/A,,Clear,180,2013-11-14 09:35:00
3:55 AM,39.2,24.8,56,30.11,10.0,South,8.1,-,N/A,,Clear,180,2013-11-14 09:55:00
4:15 AM,39.2,24.8,56,30.11,10.0,South,9.2,-,N/A,,Clear,180,2013-11-14 10:15:00
4:35 AM,39.2,24.8,56,30.11,10.0,South,8.1,-,N/A,,Clear,180,2013-11-14 10:35:00
4:55 AM,37.4,24.8,60,30.10,10.0,South,9.2,-,N/A,,Clear,180,2013-11-14 10:55:00
5:15 AM,37.4,24.8,60,30.10,10.0,SSW,9.2,-,N/A,,Unknown,200,2013-11-14 11:15:00
5:35 AM,39.2,24.8,56,30.10,10.0,South,9.2,-,N/A,,Clear,190,2013-11-14 11:35:00
5:55 AM,39.2,23.0,52,30.10,10.0,South,11.5,-,N/A,,Clear,190,2013-11-14 11:55:00
6:15 AM,39.2,23.0,52,30.10,10.0,SSW,9.2,-,N/A,,Clear,200,2013-11-14 12:15:00
6:35 AM,37.4,23.0,56,30.09,10.0,South,8.1,-,N/A,,Clear,190,2013-11-14 12:35:00
6:55 AM,37.4,24.8,60,30.09,10.0,South,9.2,-,N/A,,Clear,190,2013-11-14 12:55:00
7:15 AM,37.4,24.8,60,30.10,10.0,South,10.4,-,N/A,,Clear,190,2013-11-14 13:15:00
7:35 AM,37.4,24.8,60,30.10,10.0,South,9.2,-,N/A,,Clear,190,2013-11-14 13:35:00
7:55 AM,37.4,24.8,60,30.10,10.0,South,9.2,-,N/A,,Unknown,190,2013-11-14 13:55:00
8:15 AM,39.2,26.6,61,30.09,10.0,SSW,11.5,-,N/A,,Clear,200,2013-11-14 14:15:00
8:35 AM,41.0,24.8,53,30.09,10.0,South,9.2,18.4,N/A,,Clear,190,2013-11-14 14:35:00
8:55 AM,41.0,24.8,53,30.08,10.0,South,11.5,-,N/A,,Clear,190,2013-11-14 14:55:00
9:15 AM,42.8,24.8,49,30.08,10.0,South,11.5,20.7,N/A,,Clear,190,2013-11-14 15:15:00
9:35 AM,42.8,26.6,53,30.07,10.0,SSW,12.7,-,N/A,,Clear,200,2013-11-14 15:35:00
9:55 AM,44.6,24.8,46,30.07,10.0,SSW,10.4,19.6,N/A,,Clear,200,2013-11-14 15:55:00
10:15 AM,44.6,24.8,46,30.08,10.0,SSW,10.4,-,N/A,,Clear,210,2013-11-14 16:15:00
10:35 AM,46.4,26.6,46,30.07,10.0,South,13.8,20.7,N/A,,Clear,190,2013-11-14 16:35:00
10:55 AM,46.4,24.8,43,30.06,10.0,SSW,12.7,19.6,N/A,,Clear,200,2013-11-14 16:55:00
11:15 AM,48.2,24.8,40,30.06,10.0,SSW,12.7,21.9,N/A,,Clear,200,2013-11-14 17:15:00
11:35 AM,48.2,26.6,43,30.06,10.0,SSW,12.7,19.6,N/A,,Clear,210,2013-11-14 17:35:00
11:55 AM,48.2,24.8,40,30.05,10.0,SSW,12.7,19.6,N/A,,Clear,210,2013-11-14 17:55:00
12:15 PM,50.0,26.6,40,30.05,10.0,SW,10.4,-,N/A,,Clear,220,2013-11-14 18:15:00
12:35 PM,50.0,26.6,40,30.03,10.0,SSW,9.2,-,N/A,,Clear,210,2013-11-14 18:35:00
12:55 PM,50.0,26.6,40,30.02,10.0,SSW,10.4,-,N/A,,Clear,200,2013-11-14 18:55:00
1:15 PM,51.8,26.6,38,30.01,10.0,SSW,12.7,-,N/A,,Clear,200,2013-11-14 19:15:00
1:35 PM,51.8,26.6,38,30.00,10.0,South,11.5,16.1,N/A,,Clear,190,2013-11-14 19:35:00
1:55 PM,53.6,26.6,35,29.99,10.0,South,13.8,17.3,N/A,,Clear,190,2013-11-14 19:55:00
2:15 PM,53.6,26.6,35,29.98,10.0,SSW,12.7,16.1,N/A,,Clear,200,2013-11-14 20:15:00
2:35 PM,55.4,26.6,33,29.97,10.0,South,12.7,19.6,N/A,,Unknown,190,2013-11-14 20:35:00
2:55 PM,55.4,26.6,33,29.97,10.0,SSW,13.8,21.9,N/A,,Clear,200,2013-11-14 20:55:00
3:15 PM,55.4,26.6,33,29.96,10.0,South,15.0,20.7,N/A,,Clear,190,2013-11-14 21:15:00
3:35 PM,55.4,24.8,31,29.96,10.0,SSW,10.4,-,N/A,,Clear,200,2013-11-14 21:35:00
3:55 PM,55.4,24.8,31,29.97,10.0,SSW,11.5,-,N/A,,Clear,210,2013-11-14 21:55:00
4:15 PM,55.4,24.8,31,29.97,10.0,SW,8.1,-,N/A,,Clear,220,2013-11-14 22:15:00
4:35 PM,53.6,26.6,35,29.97,10.0,South,8.1,-,N/A,,Clear,180,2013-11-14 22:35:00
4:55 PM,53.6,24.8,33,29.96,10.0,South,9.2,17.3,N/A,,Clear,190,2013-11-14 22:55:00
5:15 PM,51.8,26.6,38,29.96,10.0,Calm,Calm,-,N/A,,Clear,0,2013-11-14 23:15:00
5:35 PM,50.0,26.6,40,29.97,10.0,South,3.5,-,N/A,,Clear,180,2013-11-14 23:35:00
5:55 PM,50.0,26.6,40,29.97,10.0,South,6.9,-,N/A,,Clear,180,2013-11-14 23:55:00
6:15 PM,50.0,26.6,40,29.98,10.0,South,5.8,-,N/A,,Clear,190,2013-11-15 00:15:00
6:35 PM,48.2,26.6,43,29.98,10.0,South,9.2,-,N/A,,Clear,180,2013-11-15 00:35:00
6:55 PM,48.2,28.4,46,29.98,10.0,South,6.9,-,N/A,,Clear,190,2013-11-15 00:55:00
7:15 PM,46.4,28.4,50,29.98,10.0,South,6.9,-,N/A,,Clear,180,2013-11-15 01:15:00
7:35 PM,46.4,28.4,50,29.98,10.0,South,5.8,-,N/A,,Clear,180,2013-11-15 01:35:00
7:55 PM,46.4,28.4,50,29.97,10.0,South,4.6,-,N/A,,Clear,180,2013-11-15 01:55:00
8:15 PM,46.4,28.4,50,29.98,10.0,South,4.6,-,N/A,,Scattered Clouds,180,2013-11-15 02:15:00
8:35 PM,44.6,30.2,57,29.98,10.0,South,6.9,-,N/A,,Mostly Cloudy,190,2013-11-15 02:35:00
8:55 PM,46.4,30.2,53,29.98,10.0,South,6.9,-,N/A,,Unknown,190,2013-11-15 02:55:00
9:15 PM,46.4,30.2,53,29.99,10.0,South,9.2,-,N/A,,Mostly Cloudy,190,2013-11-15 03:15:00
9:35 PM,46.4,28.4,50,29.99,10.0,SSW,9.2,-,N/A,,Mostly Cloudy,200,2013-11-15 03:35:00
9:55 PM,44.6,28.4,53,29.98,10.0,SSW,10.4,-,N/A,,Scattered Clouds,200,2013-11-15 03:55:00
10:15 PM,46.4,28.4,50,29.99,10.0,SSW,10.4,-,N/A,,Scattered Clouds,200,2013-11-15 04:15:00
10:35 PM,46.4,26.6,46,29.98,10.0,SSW,8.1,16.1,N/A,,Mostly Cloudy,200,2013-11-15 04:35:00
10:55 PM,46.4,26.6,46,29.98,10.0,SSW,10.4,16.1,N/A,,Mostly Cloudy,200,2013-11-15 04:55:00
11:15 PM,46.4,26.6,46,29.98,10.0,SSW,9.2,-,N/A,,Mostly Cloudy,210,2013-11-15 05:15:00
11:35 PM,46.4,26.6,46,29.98,10.0,SSW,8.1,-,N/A,,Mostly Cloudy,210,2013-11-15 05:35:00
11:55 PM,46.4,28.4,50,29.98,10.0,SSW,6.9,-,N/A,,Unknown,200,2013-11-15 05:55:00